www.pogodaiklimat.ru

Погода и климат >> Архив погоды >> Россия >> Ямало-Ненецкий АО >> Тамбей


ПОГОДА в Тамбее

  • Прогноз погоды в Тамбее
  • Монитор погоды в Тамбее
  • Климат города

АРХИВ ПОГОДЫ в Тамбее

Время (UTC), дата Ветер
(напр.,м/с)
 
Видим.   Явления Облачность Т
(С)
Тd
(С)
f
(%)
Тe
(С)
Тes
(С)
Комфортность P
(гПа)
Po
(гПа)
Тmin
(С)
Tmax
(С)
R
(мм)
R24
(мм)
S
(см)
18 10.12 ЮЗ 8 н/о н/о -7.4 -7.4 -17 -17 1006.3 1005.3
21 10.12 ЮЗ 10
{13}
н/о н/о -3.2 -2.8 -13 -13 1004.7 1003.6
00 11.12 З 12
{16}
н/о н/о -1.7 -1.2 -11 -11 1003.9 1002.9
03 11.12 З 10
{15}
н/о н/о -1.3 -0.8 -10 -10 1004.7 1003.7
06 11.12 С 6
{13}
н/о н/о -4.5 -4.1 -12 -12 1007.0 1005.9
09 11.12 СЗ 5 н/о н/о -4.3 -4.3 -12 -12 1009.6 1008.6
12 11.12 С 7 н/о н/о -5.0 -4.9 -14 -14 1011.3 1010.3
15 11.12 СВ 6 н/о н/о -7.4 -7.5 -16 -16 1013.1 1012.0
18 11.12 ЮВ 2 н/о н/о -11.4 -12.4 -16 -16 1013.8 1012.8
21 11.12 З 3 н/о н/о -11.9 -12.4 -18 -18 1013.4 1012.4
00 12.12 З 2 н/о н/о -17.5 -18.5 -23 -23 1012.7 1011.6
03 12.12 ЮЗ 4 н/о н/о -16.4 -17.3 -25 -25 1011.1 1010.0
06 12.12 ЮЗ 10 н/о н/о -12.9 -14.1 -24 -24 1008.1 1007.1
09 12.12 ЮЗ 10
{14}
н/о н/о -10.8 -11.1 -22 -22 1005.1 1004.0
12 12.12 ЮЗ 14
{18}
н/о н/о -6.2 -6.1 -18 -18 1000.5 999.5
15 12.12 ЮЗ 12
{18}
н/о н/о -2.5 -2.0 -12 -12 997.1 996.1
18 12.12 СЗ 11
{21}
н/о н/о -6.5 -6.9 -17 -17 997.3 996.2
21 12.12 З 6
{16}
н/о н/о -9.5 -10.2 -18 -18 998.6 997.6
00 13.12 СЗ 9 н/о н/о -12.0 -13.3 -23 -23 1000.1 999.1
03 13.12 СЗ 8 н/о н/о -13.3 -14.5 -24 -24 1002.8 1001.7
06 13.12 З 6 н/о н/о -15.1 -16.2 -25 -25 1005.7 1004.6
09 13.12 З 5 н/о н/о -18.0 -19.2 -28 -28 1006.5 1005.5
12 13.12 ЮЗ 7 н/о н/о -11.5 -13.4 -21 -21 1004.7 1003.7
15 13.12 ЮЗ 8 н/о н/о -10.1 -11.2 -20 -20 1000.8 999.8
18 13.12 ЮЗ 10 н/о н/о -8.2 -8.3 -19 -19 996.3 995.2
21 13.12 Ю 10
{15}
н/о н/о -8.9 -9.0 -20 -20 993.2 992.2
00 14.12 Ю 9
{13}
н/о н/о -9.6 -9.9 -20 -20 990.9 989.8
03 14.12 ЮВ 3 н/о н/о -11.0 -11.4 -17 -17 991.1 990.1
06 14.12 С 3 н/о н/о -10.9 -11.3 -17 -17 993.3 992.2
09 14.12 С 4 н/о н/о -13.3 -13.8 -21 -21 996.6 995.5
12 14.12 С 4 н/о н/о -14.4 -15.2 -22 -22 1000.3 999.2
15 14.12 С 5 н/о н/о -10.8 -11.1 -19 -19 1002.8 1001.7
18 14.12 С 1 н/о н/о -15.3 -16.0 -18 -18 1005.3 1004.2
21 14.12 СЗ 1 н/о н/о -18.0 -19.0 -21 -21 1007.2 1006.2
00 15.12 З 2 н/о н/о -20.0 -21.3 -26 -26 1009.0 1007.9
03 15.12 З 1 н/о н/о -20.2 -21.5 -23 -23 1010.3 1009.2
06 15.12 ЮЗ 1 н/о н/о -21.2 -22.7 -24 -24 1011.0 1009.9
09 15.12 Ю 1 н/о н/о -23.8 -25.6 -27 -27 1011.7 1010.6
12 15.12 ЮЗ 1 н/о н/о -17.0 -18.0 -20 -20 1011.5 1010.4
15 15.12 ЮЗ 1 н/о н/о -14.8 -15.6 -17 -17 1010.4 1009.3
18 15.12 ЮЗ 1 н/о н/о -13.8 -14.4 -16 -16 1008.7 1007.6
21 15.12 Ю 2 н/о н/о -14.4 -15.2 -19 -19 1006.7 1005.6
00 16.12 Ю 8 н/о н/о -12.8 -13.3 -23 -23 1003.3 1002.3
03 16.12 Ю 8 н/о н/о -9.8 -9.9 -20 -20 1000.6 999.5
06 16.12 ЮЗ 6 н/о н/о -5.3 -4.9 -13 -13 998.8 997.8
09 16.12 З 8 н/о н/о -2.4 -1.9 -11 -11 999.0 998.0
12 16.12 З 9 н/о н/о -2.4 -2.0 -11 -11 999.6 998.6
15 16.12 З 7 н/о н/о -3.4 -3.0 -12 -12 999.5 998.5
18 16.12 З 10 н/о н/о -3.1 -2.7 -13 -13 998.9 997.9
21 16.12 З 11
{13}
н/о н/о -0.4 0.0 -9 -9 998.1 997.1
00 17.12 З 11 н/о н/о -0.7 -0.4 102 -10 998.3 997.3
03 17.12 З 11 н/о н/о -1.7 -1.7 100 -11 997.0 996.0
06 17.12 З 13 н/о н/о -0.4 +0.1 104 -10 994.3 993.3
09 17.12 З 15 н/о н/о -0.5 0.0 104 -11 991.7 990.7
12 17.12 СЗ 10 н/о н/о -2.7 -2.2 104 -12 991.7 990.7
15 17.12 СЗ 7 н/о н/о -7.7 -7.8 99 -17 994.3 993.3

 

Местоположение метеостанции Тамбей (Ямало-Ненецкий АО, Россия): широта 71.48 долгота 71.82 высота над уровнем моря 8 м.

В архиве по умолчанию представлена погода в Тамбее за последнюю неделю. Архивные данные за месяц целиком и за предыдущие месяцы, начиная с января 2011 года, Вы можете получить, выбрав интересующий диапазон дат из раскрывающегося списка и нажав кнопку "Ввод!".


*Определитесь, кто Вы:
робот инопланетянин человек

Внимание! Время в таблицах - всемирное. Для получения местного времени необходимо прибавить поправку, которая в Тамбее равна 5 ч.

Смотрите также архив погоды в соседних городах и на ближайших метеорологических станциях:

Погода в Сеяхе (Ямало-Ненецкий АО, Россия) (148 км)
Погода в Имени Попова (Ямало-Ненецкий АО, Россия) (214 км)
Погода в Гыде (Ямало-Ненецкий АО, Россия) (248 км)
Погода в Марресаля (Ямало-Ненецкий АО, Россия) (270 км)
Погода в Антипаюте (Ямало-Ненецкий АО, Россия) (327 км)
Погода в Усть-Каре (Ненецкий АО, Россия) (357 км)
Погода на Острове Диксон (Красноярский край, Россия) (365 км)
Погода в Сопочной Карге (Красноярский край, Россия) (382 км)
Погода в Амдерме (Ненецкий АО, Россия) (419 км)
Погода в Новом Порте (Ямало-Ненецкий АО, Россия) (425 км)

Пояснения к столбцам:

Ветер - указаны скорость ветра в м/с - средняя за 10 мин, порывы в срок и между сроками (в фигурных скобках) и направление, откуда дует ветер: С - северный, СВ - северо-восточный, В - восточный, ЮВ - юго-восточный, Ю - южный, ЮЗ - юго-западный, З - западный, СЗ - северо-западный.
Видимость - горизонтальная дальность видимости в метрах или километрах. При видимости от 1 до 10 км при отсутствии осадков обычно наблюдается дымка, при ухудшении видимости до 1 км и менее - туман. В сухую погоду видимость может ухудшаться дымом, пылью или мглою.
Явления - указаны атмосферные явления, наблюдавшиеся в срок или в последний час перед сроком; фигурными скобками обозначены явления, наблюдавшиеся между сроками (за 1-3 часа до срока); квадратными скобками обозначены град или гололедные отложения с указанием их диаметра в мм.
Облачность - указаны через наклонную черту общая и нижняя облачность в баллах и высота нижней границы облаков в метрах; квадратными скобками обозначены формы облаков: Ci - перистые, Cs - перисто-слоистые, Cc - перисто-кучевые, Ac - высококучевые, As - высокослоистые, Sc - слоисто-кучевые, Ns - слоисто-дождевые, Cu - кучевые, Cb - кучево-дождевые. Подробнее классификацию облаков см. в Атласе облаков (PDF).
T - Температура воздуха - температура, измеренная на высоте 2 м над землей.
Td - Температура точки росы - температура, при понижении до которой содержащийся в воздухе водяной пар достигнет насыщения.
f - Относительная влажность воздуха - влажноcть воздуха, измеренная на высоте 2 м над землей.
Te - Эффективная температура - температура, которую ощущает одетый по сезону человек в тени. Характеристика душности погоды. При расчете учитывается влияние влажности воздуха и скорости ветра на теплоощущения человека.
Tes - Эффективная температура на солнце - температура, которую ощущает человек, с поправкой на солнечный нагрев. Характеристика знойности погоды. Зависит от высоты солнца над горизонтом, облачности и скорости ветра. Ночью, в пасмурную погоду, а также при ветре 12 м/с и более поправка равна нулю.
P - Атмосферное давление - приведенное к уровню моря атмосферное давление.
Po - Атмосферное давление - измеренное на уровне метеостанции атмосферное давление.
Tmin - Минимальная температура - минимум температуры воздуха на высоте 2 м над землей.
Tmax - Максимальная температура - максимум температуры воздуха на высоте 2 м над землей.
R - Количество осадков - Количество выпавших осадков за период времени, мм. При наведении курсора мыши на число - период времени, за который выпало указанное количество осадков.
R24 - Количество осадков - Количество выпавших осадков за 24 часа, мм.
S - Снежный покров - Высота снежного покрова, см. При наведении курсора мыши на число - состояние снежного покрова и степень покрытия местности в баллах.